Time,TemperatureF,DewpointF,PressureIn,WindDirection,WindDirectionDegrees,WindSpeedMPH,WindSpeedGustMPH,Humidity,HourlyPrecipIn,Conditions,Clouds,dailyrainin,SoftwareType,DateUTC
2013-01-15 00:03:00,24.1,18.0,30.28,WNW,286,14.0,28.0,76,0.00,,,0.00,weatherlink.com 1.10,2013-01-15 05:03:00,
2013-01-15 00:18:00,24.1,17.0,30.28,WNW,292,19.0,27.0,74,0.00,,,0.00,weatherlink.com 1.10,2013-01-15 05:18:00,
2013-01-15 00:33:00,24.0,17.0,30.28,West,263,15.0,30.0,74,0.00,,,0.00,weatherlink.com 1.10,2013-01-15 05:33:00,
2013-01-15 00:48:00,24.0,17.0,30.28,West,280,16.0,27.0,75,0.00,,,0.00,weatherlink.com 1.10,2013-01-15 05:48:00,
2013-01-15 01:03:00,23.9,18.0,30.28,West,273,15.0,24.0,77,0.00,,,0.00,weatherlink.com 1.10,2013-01-15 06:03:00,
2013-01-15 01:18:00,23.8,18.0,30.29,West,266,13.0,23.0,78,0.00,,,0.00,weatherlink.com 1.10,2013-01-15 06:18:00,
2013-01-15 01:33:00,23.7,17.0,30.28,WNW,288,19.0,27.0,75,0.00,,,0.00,weatherlink.com 1.10,2013-01-15 06:33:00,
2013-01-15 01:48:00,23.4,17.0,30.28,WNW,287,15.0,25.0,75,0.00,,,0.00,weatherlink.com 1.10,2013-01-15 06:48:00,
2013-01-15 02:03:00,23.2,17.0,30.29,WNW,294,17.0,30.0,76,0.00,,,0.00,weatherlink.com 1.10,2013-01-15 07:03:00,
2013-01-15 02:18:00,22.9,17.0,30.29,West,279,17.0,30.0,78,0.00,,,0.00,weatherlink.com 1.10,2013-01-15 07:18:00,
2013-01-15 02:33:00,22.6,16.0,30.30,West,278,22.0,29.0,76,0.00,,,0.00,weatherlink.com 1.10,2013-01-15 07:33:00,
2013-01-15 02:48:00,21.9,16.0,30.31,WNW,286,19.0,30.0,77,0.00,,,0.00,weatherlink.com 1.10,2013-01-15 07:48:00,
2013-01-15 03:03:00,21.0,14.0,30.31,WNW,286,17.0,29.0,73,0.00,,,0.00,weatherlink.com 1.10,2013-01-15 08:03:00,
2013-01-15 03:18:00,20.6,13.0,30.32,WNW,299,16.0,26.0,73,0.00,,,0.00,weatherlink.com 1.10,2013-01-15 08:18:00,
2013-01-15 03:33:00,20.5,12.0,30.33,NW,309,22.0,27.0,71,0.00,,,0.00,weatherlink.com 1.10,2013-01-15 08:33:00,
2013-01-15 03:48:00,20.2,12.0,30.33,WNW,284,22.0,30.0,71,0.00,,,0.00,weatherlink.com 1.10,2013-01-15 08:48:00,
2013-01-15 04:03:00,19.9,12.0,30.32,WNW,288,15.0,23.0,70,0.00,,,0.00,weatherlink.com 1.10,2013-01-15 09:03:00,
2013-01-15 04:18:00,19.9,12.0,30.31,West,269,20.0,25.0,72,0.00,,,0.00,weatherlink.com 1.10,2013-01-15 09:18:00,
2013-01-15 04:33:00,19.9,13.0,30.32,WNW,296,13.0,23.0,73,0.00,,,0.00,weatherlink.com 1.10,2013-01-15 09:33:00,
2013-01-15 04:48:00,19.5,11.0,30.32,NNW,332,12.0,20.0,70,0.00,,,0.00,weatherlink.com 1.10,2013-01-15 09:48:00,
2013-01-15 05:03:00,19.4,12.0,30.31,NW,318,7.0,17.0,72,0.00,,,0.00,weatherlink.com 1.10,2013-01-15 10:03:00,
2013-01-15 05:18:00,19.5,12.0,30.32,WNW,284,14.0,21.0,71,0.00,,,0.00,weatherlink.com 1.10,2013-01-15 10:18:00,
2013-01-15 05:33:00,19.4,11.0,30.32,WNW,283,8.0,17.0,70,0.00,,,0.00,weatherlink.com 1.10,2013-01-15 10:33:00,
2013-01-15 05:48:00,19.5,12.0,30.32,NW,319,7.0,12.0,72,0.00,,,0.00,weatherlink.com 1.10,2013-01-15 10:48:00,
2013-01-15 06:03:00,19.5,12.0,30.32,NNW,327,8.0,14.0,72,0.00,,,0.00,weatherlink.com 1.10,2013-01-15 11:03:00,
2013-01-15 06:18:00,19.5,12.0,30.32,NW,305,6.0,16.0,72,0.00,,,0.00,weatherlink.com 1.10,2013-01-15 11:18:00,
2013-01-15 06:33:00,19.5,11.0,30.33,WNW,295,10.0,12.0,70,0.00,,,0.00,weatherlink.com 1.10,2013-01-15 11:33:00,
2013-01-15 06:48:00,19.3,10.0,30.33,WNW,291,7.0,13.0,67,0.00,,,0.00,weatherlink.com 1.10,2013-01-15 11:48:00,
2013-01-15 07:03:00,19.0,10.0,30.33,NW,305,7.0,9.0,69,0.00,,,0.00,weatherlink.com 1.10,2013-01-15 12:03:00,
2013-01-15 07:18:00,19.0,11.0,30.33,WNW,283,3.0,7.0,71,0.00,,,0.00,weatherlink.com 1.10,2013-01-15 12:18:00,
2013-01-15 07:33:00,18.9,11.0,30.32,West,277,5.0,7.0,71,0.00,,,0.00,weatherlink.com 1.10,2013-01-15 12:33:00,
2013-01-15 07:48:00,18.8,11.0,30.32,West,261,4.0,6.0,72,0.00,,,0.00,weatherlink.com 1.10,2013-01-15 12:48:00,
2013-01-15 08:03:00,18.5,12.0,30.33,WSW,246,3.0,5.0,74,0.00,,,0.00,weatherlink.com 1.10,2013-01-15 13:03:00,
2013-01-15 08:18:00,18.4,12.0,30.32,WSW,244,4.0,4.0,75,0.00,,,0.00,weatherlink.com 1.10,2013-01-15 13:18:00,
2013-01-15 08:33:00,18.4,12.0,30.32,SW,223,3.0,5.0,75,0.00,,,0.00,weatherlink.com 1.10,2013-01-15 13:33:00,
2013-01-15 08:48:00,18.3,12.0,30.33,SW,217,5.0,7.0,77,0.00,,,0.00,weatherlink.com 1.10,2013-01-15 13:48:00,
2013-01-15 09:03:00,18.5,13.0,30.34,SSW,209,6.0,8.0,78,0.00,,,0.00,weatherlink.com 1.10,2013-01-15 14:03:00,
2013-01-15 09:18:00,19.3,14.0,30.34,SW,222,7.0,9.0,78,0.00,,,0.00,weatherlink.com 1.10,2013-01-15 14:18:00,
2013-01-15 09:33:00,20.7,15.0,30.33,SW,230,7.0,9.0,77,0.00,,,0.00,weatherlink.com 1.10,2013-01-15 14:33:00,
2013-01-15 09:48:00,21.6,15.0,30.33,SW,231,9.0,11.0,76,0.00,,,0.00,weatherlink.com 1.10,2013-01-15 14:48:00,
2013-01-15 10:03:00,22.4,15.0,30.32,West,278,10.0,12.0,72,0.00,,,0.00,weatherlink.com 1.10,2013-01-15 15:03:00,
2013-01-15 10:18:00,22.7,15.0,30.32,SW,227,9.0,13.0,71,0.00,,,0.00,weatherlink.com 1.10,2013-01-15 15:18:00,
2013-01-15 10:33:00,22.9,15.0,30.31,SSW,213,8.0,16.0,72,0.00,,,0.00,weatherlink.com 1.10,2013-01-15 15:33:00,
2013-01-15 10:48:00,23.1,16.0,30.30,SW,219,9.0,12.0,73,0.00,,,0.00,weatherlink.com 1.10,2013-01-15 15:48:00,
2013-01-15 11:03:00,24.0,16.0,30.30,SW,229,7.0,12.0,72,0.00,,,0.00,weatherlink.com 1.10,2013-01-15 16:03:00,
2013-01-15 11:18:00,24.2,16.0,30.30,WSW,252,10.0,16.0,70,0.00,,,0.00,weatherlink.com 1.10,2013-01-15 16:18:00,
2013-01-15 11:34:00,25.0,17.0,30.29,SW,225,11.0,18.0,70,0.00,,,0.00,weatherlink.com 1.10,2013-01-15 16:34:00,
2013-01-15 11:49:00,25.1,16.0,30.29,WSW,238,12.0,18.0,68,0.00,,,0.00,weatherlink.com 1.10,2013-01-15 16:49:00,
2013-01-15 12:04:00,25.2,15.0,30.28,WSW,257,11.0,21.0,66,0.00,,,0.00,weatherlink.com 1.10,2013-01-15 17:04:00,
2013-01-15 12:19:00,25.1,16.0,30.28,SW,227,10.0,22.0,67,0.00,,,0.00,weatherlink.com 1.10,2013-01-15 17:19:00,
2013-01-15 12:34:00,25.5,16.0,30.27,West,264,11.0,22.0,67,0.00,,,0.00,weatherlink.com 1.10,2013-01-15 17:34:00,
2013-01-15 12:49:00,25.3,16.0,30.26,SW,217,16.0,23.0,68,0.00,,,0.00,weatherlink.com 1.10,2013-01-15 17:49:00,
2013-01-15 13:04:00,26.2,17.0,30.25,WSW,242,16.0,20.0,68,0.00,,,0.00,weatherlink.com 1.10,2013-01-15 18:04:00,
2013-01-15 13:19:00,25.8,17.0,30.24,SW,229,12.0,19.0,69,0.00,,,0.00,weatherlink.com 1.10,2013-01-15 18:19:00,
2013-01-15 13:34:00,26.0,18.0,30.24,SW,230,6.0,22.0,71,0.00,,,0.00,weatherlink.com 1.10,2013-01-15 18:34:00,
2013-01-15 13:49:00,26.0,18.0,30.23,SSW,211,14.0,20.0,71,0.00,,,0.00,weatherlink.com 1.10,2013-01-15 18:49:00,
2013-01-15 14:04:00,26.1,18.0,30.22,SW,228,16.0,19.0,71,0.00,,,0.00,weatherlink.com 1.10,2013-01-15 19:04:00,
2013-01-15 14:19:00,26.2,18.0,30.21,SW,214,13.0,22.0,70,0.00,,,0.00,weatherlink.com 1.10,2013-01-15 19:19:00,
2013-01-15 14:34:00,26.5,18.0,30.21,SSW,209,8.0,20.0,71,0.00,,,0.00,weatherlink.com 1.10,2013-01-15 19:34:00,
2013-01-15 14:49:00,26.7,18.0,30.22,WSW,240,14.0,19.0,70,0.00,,,0.00,weatherlink.com 1.10,2013-01-15 19:49:00,
2013-01-15 15:04:00,26.9,18.0,30.22,WSW,254,19.0,22.0,70,0.00,,,0.00,weatherlink.com 1.10,2013-01-15 20:04:00,
2013-01-15 15:19:00,26.8,19.0,30.22,SW,229,15.0,22.0,71,0.00,,,0.00,weatherlink.com 1.10,2013-01-15 20:19:00,
2013-01-15 15:34:00,27.0,19.0,30.21,SW,223,9.0,21.0,71,0.00,,,0.00,weatherlink.com 1.10,2013-01-15 20:34:00,
2013-01-15 15:49:00,27.0,19.0,30.21,SW,227,13.0,19.0,71,0.00,,,0.00,weatherlink.com 1.10,2013-01-15 20:49:00,
2013-01-15 16:04:00,27.2,19.0,30.20,SW,229,14.0,17.0,71,0.00,,,0.00,weatherlink.com 1.10,2013-01-15 21:04:00,
2013-01-15 16:19:00,27.1,19.0,30.19,SSW,207,9.0,18.0,72,0.00,,,0.00,weatherlink.com 1.10,2013-01-15 21:19:00,
2013-01-15 16:34:00,27.2,20.0,30.18,SW,218,9.0,18.0,73,0.00,,,0.00,weatherlink.com 1.10,2013-01-15 21:34:00,
2013-01-15 16:49:00,27.1,20.0,30.18,SW,225,12.0,18.0,73,0.00,,,0.00,weatherlink.com 1.10,2013-01-15 21:49:00,
2013-01-15 17:04:00,27.2,19.0,30.18,SW,219,7.0,20.0,72,0.00,,,0.00,weatherlink.com 1.10,2013-01-15 22:04:00,
2013-01-15 17:19:00,27.4,19.0,30.17,SW,230,8.0,17.0,72,0.00,,,0.00,weatherlink.com 1.10,2013-01-15 22:19:00,
2013-01-15 17:34:00,27.8,19.0,30.16,SW,214,11.0,21.0,69,0.00,,,0.00,weatherlink.com 1.10,2013-01-15 22:34:00,
2013-01-15 17:49:00,27.2,19.0,30.16,SW,223,13.0,16.0,72,0.00,,,0.00,weatherlink.com 1.10,2013-01-15 22:49:00,
2013-01-15 18:04:00,26.7,19.0,30.16,SSW,213,10.0,17.0,73,0.00,,,0.00,weatherlink.com 1.10,2013-01-15 23:04:00,
2013-01-15 18:19:00,26.7,19.0,30.16,SSW,208,7.0,17.0,74,0.00,,,0.00,weatherlink.com 1.10,2013-01-15 23:19:00,
2013-01-15 18:34:00,26.6,19.0,30.15,SSW,200,10.0,17.0,74,0.00,,,0.00,weatherlink.com 1.10,2013-01-15 23:34:00,
2013-01-15 18:49:00,26.6,20.0,30.15,SSW,211,9.0,22.0,75,0.00,,,0.00,weatherlink.com 1.10,2013-01-15 23:49:00,
2013-01-15 19:04:00,26.7,20.0,30.14,SSW,205,9.0,21.0,76,0.00,,,0.00,weatherlink.com 1.10,2013-01-16 00:04:00,
2013-01-15 19:19:00,26.6,20.0,30.14,SSW,194,10.0,21.0,77,0.00,,,0.00,weatherlink.com 1.10,2013-01-16 00:19:00,
2013-01-15 19:34:00,26.6,21.0,30.14,SW,224,11.0,20.0,78,0.00,,,0.00,weatherlink.com 1.10,2013-01-16 00:34:00,
2013-01-15 19:49:00,26.7,21.0,30.14,SSW,211,7.0,18.0,78,0.00,,,0.00,weatherlink.com 1.10,2013-01-16 00:49:00,
2013-01-15 20:04:00,26.7,21.0,30.13,SSW,213,14.0,20.0,79,0.00,,,0.00,weatherlink.com 1.10,2013-01-16 01:04:00,
2013-01-15 20:19:00,26.7,21.0,30.12,SSW,213,12.0,23.0,80,0.00,,,0.00,weatherlink.com 1.10,2013-01-16 01:19:00,
2013-01-15 20:34:00,26.6,21.0,30.11,SW,226,22.0,24.0,80,0.00,,,0.00,weatherlink.com 1.10,2013-01-16 01:34:00,
2013-01-15 20:49:00,26.6,21.0,30.10,SW,218,19.0,23.0,80,0.00,,,0.00,weatherlink.com 1.10,2013-01-16 01:49:00,
2013-01-15 21:04:00,26.6,21.0,30.10,SW,232,14.0,26.0,80,0.00,,,0.00,weatherlink.com 1.10,2013-01-16 02:04:00,
2013-01-15 21:19:00,26.5,21.0,30.09,SW,235,20.0,22.0,81,0.00,,,0.00,weatherlink.com 1.10,2013-01-16 02:19:00,
2013-01-15 21:35:00,26.5,21.0,30.08,SSW,213,14.0,22.0,81,0.00,,,0.00,weatherlink.com 1.10,2013-01-16 02:35:00,
2013-01-15 21:50:00,26.4,21.0,30.07,SW,215,14.0,21.0,81,0.00,,,0.00,weatherlink.com 1.10,2013-01-16 02:50:00,
2013-01-15 22:05:00,26.4,21.0,30.07,SSW,202,9.0,18.0,81,0.00,,,0.00,weatherlink.com 1.10,2013-01-16 03:05:00,
2013-01-15 22:20:00,26.4,21.0,30.07,SSW,211,10.0,17.0,81,0.00,,,0.00,weatherlink.com 1.10,2013-01-16 03:20:00,
2013-01-15 22:35:00,26.5,21.0,30.06,SW,217,14.0,17.0,81,0.00,,,0.00,weatherlink.com 1.10,2013-01-16 03:35:00,
2013-01-15 22:50:00,26.6,22.0,30.05,SSW,205,14.0,18.0,81,0.00,,,0.00,weatherlink.com 1.10,2013-01-16 03:50:00,
2013-01-15 23:05:00,26.6,22.0,30.04,SSW,209,10.0,19.0,81,0.00,,,0.00,weatherlink.com 1.10,2013-01-16 04:05:00,
2013-01-15 23:20:00,26.4,21.0,30.03,South,190,17.0,22.0,81,0.00,,,0.00,weatherlink.com 1.10,2013-01-16 04:20:00,
2013-01-15 23:35:00,26.3,21.0,30.02,SSW,208,10.0,18.0,81,0.00,,,0.00,weatherlink.com 1.10,2013-01-16 04:35:00,
2013-01-15 23:50:00,26.1,21.0,30.01,SSW,210,8.0,16.0,82,0.00,,,0.00,weatherlink.com 1.10,2013-01-16 04:50:00,